| time (UTC) | temp C | wind direction | speed KPH | gust KPH | rain 1hr cm | rain 24hr cm | rain mn cm | humidity % | barometer mb |
| 20260503050341 | 8 | 355 | 0.0 | 0.0 | 0.00 | 0.51 | 0.00 | 92 | 1009.8 |
| 20260503045839 | 8 | 355 | 0.0 | 0.0 | 0.00 | 0.51 | 0.00 | 92 | 1009.8 |
| 20260503045341 | 8 | 355 | 0.0 | 3.2 | 0.00 | 0.51 | 0.00 | 92 | 1009.9 |
| 20260503044841 | 8 | 355 | 1.6 | 3.2 | 0.00 | 0.51 | 0.00 | 92 | 1009.9 |
| 20260503044340 | 8 | 22 | 0.0 | 0.0 | 0.00 | 0.51 | 0.00 | 92 | 1009.9 |
| 20260503043843 | 8 | 22 | 0.0 | 0.0 | 0.00 | 0.51 | 0.00 | 92 | 1009.8 |
| 20260503043337 | 8 | 22 | 0.0 | 0.0 | 0.00 | 0.51 | 0.00 | 92 | 1009.8 |
| 20260503042837 | 8 | 22 | 0.0 | 0.0 | 0.00 | 0.51 | 0.00 | 92 | 1009.8 |
| 20260503042355 | 8 | 22 | 0.0 | 0.0 | 0.00 | 0.51 | 0.00 | 92 | 1009.8 |
| 20260503041850 | 8 | 22 | 0.0 | 1.6 | 0.00 | 0.51 | 0.00 | 92 | 1009.7 |
| 20260503041347 | 8 | 22 | 1.6 | 1.6 | 0.00 | 0.51 | 0.00 | 92 | 1009.7 |
| 20260503040850 | 8 | 22 | 0.0 | 0.0 | 0.00 | 0.51 | 0.00 | 92 | 1009.7 |
| 20260503040350 | 8 | 22 | 0.0 | 3.2 | 0.00 | 0.51 | 0.00 | 92 | 1009.8 |
| 20260503035839 | 8 | 22 | 0.0 | 3.2 | 0.00 | 0.51 | 0.00 | 92 | 1009.8 |
| 20260503035343 | 8 | 99 | 0.0 | 1.6 | 0.00 | 0.51 | 0.00 | 92 | 1010.0 |
| 20260503034838 | 8 | 99 | 0.0 | 1.6 | 0.00 | 0.51 | 0.00 | 92 | 1010.0 |
| 20260503034338 | 8 | 99 | 0.0 | 1.6 | 0.00 | 0.51 | 0.00 | 92 | 1010.0 |
| 20260503033839 | 7 | 99 | 0.0 | 1.6 | 0.00 | 0.51 | 0.00 | 92 | 1010.0 |
| 20260503033355 | 7 | 99 | 0.0 | 1.6 | 0.00 | 0.51 | 0.00 | 92 | 1010.1 |
| 20260503032851 | 7 | 99 | 0.0 | 1.6 | 0.00 | 0.51 | 0.00 | 91 | 1010.1 |
| 20260503032354 | 7 | 99 | 0.0 | 1.6 | 0.00 | 0.51 | 0.00 | 91 | 1010.2 |
| 20260503031854 | 7 | 99 | 0.0 | 0.0 | 0.00 | 0.51 | 0.00 | 91 | 1010.2 |
| 20260503031346 | 7 | 99 | 0.0 | 0.0 | 0.00 | 0.51 | 0.00 | 91 | 1010.2 |
| 20260503030849 | 7 | 99 | 0.0 | 3.2 | 0.00 | 0.51 | 0.00 | 91 | 1010.1 |
| 20260503030349 | 7 | 99 | 0.0 | 3.2 | 0.00 | 0.51 | 0.00 | 91 | 1010.1 |
| 20260503025847 | 7 | 99 | 1.6 | 3.2 | 0.00 | 0.51 | 0.00 | 91 | 1010.1 |
| 20260503025345 | 7 | 99 | 3.2 | 4.8 | 0.00 | 0.51 | 0.00 | 90 | 1010.1 |
| 20260503024847 | 7 | 99 | 3.2 | 4.8 | 0.00 | 0.51 | 0.00 | 90 | 1010.1 |
| 20260503024343 | 7 | 147 | 3.2 | 3.2 | 0.00 | 0.51 | 0.00 | 90 | 1010.1 |
| 20260503023837 | 7 | 147 | 0.0 | 3.2 | 0.00 | 0.51 | 0.00 | 90 | 1010.2 |
| 20260503023342 | 7 | 147 | 0.0 | 3.2 | 0.00 | 0.51 | 0.00 | 90 | 1010.1 |
| 20260503022904 | 7 | 147 | 0.0 | 3.2 | 0.00 | 0.51 | 0.00 | 90 | 1010.2 |
| 20260503022340 | 7 | 147 | 1.6 | 3.2 | 0.00 | 0.51 | 0.00 | 90 | 1010.1 |
| 20260503021846 | 7 | 147 | 1.6 | 3.2 | 0.00 | 0.51 | 0.00 | 90 | 1010.2 |
| 20260503021342 | 7 | 147 | 0.0 | 3.2 | 0.00 | 0.51 | 0.00 | 90 | 1010.2 |
| 20260503020841 | 7 | 147 | 1.6 | 3.2 | 0.00 | 0.51 | 0.00 | 90 | 1010.3 |
| 20260503020340 | 7 | 147 | 0.0 | 0.0 | 0.00 | 0.51 | 0.00 | 90 | 1010.3 |
| 20260503015856 | 7 | 147 | 0.0 | 0.0 | 0.00 | 0.51 | 0.00 | 90 | 1010.4 |
| 20260503015352 | 8 | 147 | 0.0 | 0.0 | 0.00 | 0.51 | 0.00 | 90 | 1010.3 |
| 20260503014847 | 8 | 147 | 0.0 | 0.0 | 0.00 | 0.51 | 0.00 | 90 | 1010.3 |
| 20260503014336 | 8 | 147 | 0.0 | 0.0 | 0.00 | 0.51 | 0.00 | 90 | 1010.3 |
| 20260503013836 | 8 | 147 | 0.0 | 0.0 | 0.00 | 0.51 | 0.00 | 90 | 1010.4 |
| 20260503013408 | 8 | 147 | 0.0 | 0.0 | 0.00 | 0.51 | 0.00 | 90 | 1010.3 |
| 20260503012854 | 8 | 147 | 0.0 | 0.0 | 0.00 | 0.51 | 0.00 | 90 | 1010.4 |
| 20260503012410 | 8 | 147 | 0.0 | 0.0 | 0.00 | 0.51 | 0.00 | 90 | 1010.4 |
| 20260503011908 | 8 | 147 | 0.0 | 1.6 | 0.00 | 0.51 | 0.00 | 90 | 1010.5 |
| 20260503011348 | 8 | 147 | 0.0 | 1.6 | 0.00 | 0.51 | 0.00 | 89 | 1010.5 |
| 20260503010853 | 8 | 147 | 0.0 | 1.6 | 0.00 | 0.51 | 0.00 | 89 | 1010.5 |
| 20260503010349 | 8 | 147 | 0.0 | 1.6 | 0.00 | 0.51 | 0.00 | 89 | 1010.5 |
| 20260503005906 | 8 | 147 | 0.0 | 1.6 | 0.00 | 0.51 | 0.00 | 89 | 1010.5 |
| 20260503005339 | 8 | 147 | 0.0 | 1.6 | 0.00 | 0.51 | 0.00 | 89 | 1010.5 |
| 20260503004835 | 8 | 147 | 0.0 | 1.6 | 0.00 | 0.51 | 0.00 | 89 | 1010.5 |
| 20260503004401 | 8 | 147 | 0.0 | 3.2 | 0.00 | 0.51 | 0.00 | 89 | 1010.5 |
| 20260503003839 | 8 | 147 | 0.0 | 3.2 | 0.00 | 0.51 | 0.00 | 89 | 1010.6 |
| 20260503003339 | 8 | 147 | 0.0 | 1.6 | 0.00 | 0.51 | 0.00 | 89 | 1010.6 |
| 20260503002840 | 8 | 147 | 0.0 | 0.0 | 0.00 | 0.51 | 0.00 | 89 | 1010.6 |
| 20260503002343 | 8 | 147 | 0.0 | 0.0 | 0.00 | 0.51 | 0.00 | 89 | 1010.6 |
| 20260503001900 | 8 | 147 | 0.0 | 0.0 | 0.00 | 0.51 | 0.00 | 89 | 1010.6 |
| 20260503001412 | 8 | 147 | 0.0 | 0.0 | 0.00 | 0.51 | 0.00 | 89 | 1010.6 |
| 20260503000849 | 8 | 147 | 0.0 | 0.0 | 0.00 | 0.51 | 0.00 | 89 | 1010.7 |
| 20260503000344 | 8 | 147 | 0.0 | 0.0 | 0.00 | 0.51 | 0.00 | 89 | 1010.7 |
| 20260502235847 | 8 | 147 | 0.0 | 0.0 | 0.00 | 0.51 | 0.00 | 89 | 1010.7 |
| 20260502235346 | 8 | 147 | 0.0 | 0.0 | 0.00 | 0.51 | 0.00 | 89 | 1010.7 |
| 20260502234839 | 8 | 147 | 0.0 | 3.2 | 0.00 | 0.51 | 0.00 | 89 | 1010.7 |
| 20260502234338 | 9 | 147 | 1.6 | 3.2 | 0.00 | 0.51 | 0.00 | 88 | 1010.7 |
| 20260502233838 | 9 | 147 | 3.2 | 3.2 | 0.00 | 0.51 | 0.00 | 88 | 1010.7 |
| 20260502233348 | 9 | 147 | 1.6 | 3.2 | 0.00 | 0.51 | 0.00 | 88 | 1010.7 |
| 20260502232847 | 9 | 147 | 1.6 | 3.2 | 0.00 | 0.51 | 0.00 | 88 | 1010.7 |
| 20260502232344 | 9 | 147 | 0.0 | 4.8 | 0.00 | 0.51 | 0.00 | 88 | 1010.8 |
| 20260502231845 | 9 | 147 | 3.2 | 4.8 | 0.00 | 0.51 | 0.00 | 88 | 1010.7 |
| 20260502231342 | 9 | 128 | 3.2 | 4.8 | 0.00 | 0.51 | 0.00 | 88 | 1010.7 |
| 20260502230836 | 9 | 138 | 3.2 | 6.4 | 0.00 | 0.51 | 0.00 | 88 | 1010.7 |
| 20260502230334 | 9 | 130 | 3.2 | 6.4 | 0.00 | 0.51 | 0.00 | 88 | 1010.7 |
| 20260502225857 | 10 | 145 | 3.2 | 4.8 | 0.00 | 0.51 | 0.10 | 88 | 1010.7 |
| 20260502225340 | 10 | 145 | 3.2 | 4.8 | 0.00 | 0.51 | 0.10 | 88 | 1010.7 |
| 20260502224841 | 10 | 145 | 3.2 | 6.4 | 0.00 | 0.51 | 0.10 | 88 | 1010.7 |
| 20260502224335 | 10 | 145 | 3.2 | 6.4 | 0.00 | 0.51 | 0.10 | 88 | 1010.8 |
| 20260502223855 | 10 | 153 | 4.8 | 8.0 | 0.00 | 0.51 | 0.10 | 88 | 1010.9 |
| 20260502223356 | 10 | 153 | 3.2 | 4.8 | 0.00 | 0.51 | 0.10 | 88 | 1010.8 |
| 20260502222849 | 10 | 162 | 1.6 | 4.8 | 0.00 | 0.51 | 0.10 | 88 | 1010.8 |
| 20260502222340 | 10 | 138 | 3.2 | 6.4 | 0.00 | 0.51 | 0.10 | 88 | 1010.9 |
| 20260502221838 | 10 | 139 | 3.2 | 6.4 | 0.00 | 0.51 | 0.10 | 88 | 1010.9 |
| 20260502221349 | 10 | 141 | 3.2 | 4.8 | 0.00 | 0.51 | 0.10 | 88 | 1010.9 |
| 20260502220843 | 10 | 148 | 3.2 | 4.8 | 0.00 | 0.51 | 0.10 | 88 | 1010.9 |
| 20260502220342 | 10 | 163 | 3.2 | 8.0 | 0.00 | 0.51 | 0.10 | 88 | 1011.0 |
| 20260502215837 | 10 | 150 | 4.8 | 8.0 | 0.00 | 0.51 | 0.10 | 88 | 1010.9 |
| 20260502215354 | 10 | 150 | 4.8 | 8.0 | 0.00 | 0.51 | 0.10 | 88 | 1010.9 |
| 20260502214840 | 10 | 150 | 4.8 | 8.0 | 0.00 | 0.51 | 0.10 | 88 | 1010.9 |
| 20260502214353 | 10 | 153 | 4.8 | 9.7 | 0.00 | 0.51 | 0.10 | 88 | 1011.0 |
| 20260502213911 | 10 | 185 | 4.8 | 9.7 | 0.00 | 0.51 | 0.10 | 87 | 1011.0 |
| 20260502213340 | 10 | 167 | 4.8 | 9.7 | 0.00 | 0.51 | 0.10 | 87 | 1011.0 |
| 20260502212835 | 10 | 161 | 4.8 | 11.3 | 0.00 | 0.51 | 0.10 | 87 | 1011.0 |
| 20260502212340 | 10 | 153 | 6.4 | 12.9 | 0.00 | 0.51 | 0.10 | 87 | 1011.0 |
| 20260502211836 | 10 | 139 | 6.4 | 12.9 | 0.00 | 0.51 | 0.10 | 87 | 1011.0 |
| 20260502211334 | 10 | 142 | 4.8 | 11.3 | 0.00 | 0.51 | 0.10 | 87 | 1011.0 |
| 20260502210854 | 10 | 139 | 4.8 | 11.3 | 0.00 | 0.51 | 0.10 | 87 | 1011.1 |
| 20260502210337 | 10 | 171 | 4.8 | 11.3 | 0.00 | 0.51 | 0.10 | 87 | 1011.0 |
| 20260502205838 | 11 | 141 | 6.4 | 11.3 | 0.00 | 0.51 | 0.10 | 87 | 1011.1 |
| 20260502205343 | 11 | 161 | 9.7 | 12.9 | 0.00 | 0.51 | 0.10 | 86 | 1011.1 |
| 20260502204857 | 11 | 165 | 6.4 | 12.9 | 0.00 | 0.51 | 0.10 | 86 | 1011.1 |
| 20260502204334 | 11 | 154 | 4.8 | 8.0 | 0.00 | 0.51 | 0.10 | 86 | 1011.0 |
| 20260502203855 | 11 | 137 | 4.8 | 6.4 | 0.00 | 0.51 | 0.10 | 86 | 1011.1 |
| 20260502203342 | 11 | 147 | 4.8 | 6.4 | 0.00 | 0.51 | 0.10 | 85 | 1011.0 |
| 20260502202841 | 11 | 130 | 4.8 | 9.7 | 0.00 | 0.51 | 0.10 | 85 | 1011.0 |
| 20260502202338 | 11 | 136 | 4.8 | 11.3 | 0.00 | 0.51 | 0.10 | 85 | 1011.0 |
| 20260502201836 | 11 | 145 | 4.8 | 11.3 | 0.00 | 0.51 | 0.10 | 85 | 1011.0 |
| 20260502201354 | 11 | 157 | 4.8 | 8.0 | 0.00 | 0.51 | 0.10 | 85 | 1011.0 |
| 20260502200853 | 11 | 154 | 4.8 | 9.7 | 0.00 | 0.51 | 0.10 | 85 | 1011.0 |
| 20260502200343 | 11 | 156 | 4.8 | 11.3 | 0.00 | 0.51 | 0.10 | 84 | 1011.0 |
| 20260502195844 | 11 | 140 | 8.0 | 12.9 | 0.00 | 0.51 | 0.10 | 84 | 1011.0 |
| 20260502195344 | 11 | 135 | 8.0 | 12.9 | 0.00 | 0.51 | 0.10 | 84 | 1010.9 |
| 20260502194838 | 11 | 144 | 4.8 | 14.5 | 0.00 | 0.51 | 0.10 | 84 | 1010.9 |
| 20260502194342 | 11 | 155 | 9.7 | 16.1 | 0.00 | 0.51 | 0.10 | 84 | 1010.9 |
| 20260502193840 | 12 | 132 | 11.3 | 17.7 | 0.00 | 0.51 | 0.10 | 83 | 1010.9 |
| 20260502193356 | 12 | 139 | 6.4 | 17.7 | 0.00 | 0.51 | 0.10 | 83 | 1010.8 |
| 20260502192915 | 12 | 148 | 8.0 | 14.5 | 0.00 | 0.51 | 0.10 | 83 | 1010.8 |
| 20260502192355 | 12 | 130 | 8.0 | 16.1 | 0.00 | 0.51 | 0.10 | 83 | 1010.9 |
| 20260502191850 | 12 | 151 | 9.7 | 16.1 | 0.00 | 0.51 | 0.10 | 82 | 1010.8 |
| 20260502191346 | 12 | 148 | 8.0 | 14.5 | 0.00 | 0.51 | 0.10 | 82 | 1010.9 |
| 20260502190841 | 12 | 163 | 9.7 | 16.1 | 0.00 | 0.51 | 0.10 | 81 | 1010.9 |
| 20260502190336 | 12 | 146 | 8.0 | 16.1 | 0.00 | 0.51 | 0.10 | 81 | 1010.9 |
| 20260502185859 | 12 | 150 | 8.0 | 12.9 | 0.00 | 0.51 | 0.10 | 81 | 1010.8 |
| 20260502185339 | 12 | 145 | 6.4 | 12.9 | 0.00 | 0.51 | 0.10 | 80 | 1010.8 |
| 20260502184839 | 12 | 165 | 8.0 | 16.1 | 0.00 | 0.51 | 0.10 | 80 | 1010.8 |
| 20260502184342 | 12 | 180 | 8.0 | 16.1 | 0.00 | 0.51 | 0.10 | 79 | 1010.8 |
| 20260502183848 | 12 | 188 | 9.7 | 17.7 | 0.00 | 0.51 | 0.10 | 79 | 1010.9 |
| 20260502183405 | 12 | 185 | 9.7 | 17.7 | 0.00 | 0.51 | 0.10 | 79 | 1010.9 |
| 20260502182839 | 12 | 138 | 11.3 | 17.7 | 0.00 | 0.51 | 0.10 | 79 | 1010.8 |
| 20260502182402 | 12 | 198 | 8.0 | 14.5 | 0.00 | 0.51 | 0.10 | 79 | 1010.8 |
| 20260502181836 | 12 | 150 | 9.7 | 16.1 | 0.00 | 0.51 | 0.10 | 79 | 1010.8 |
| 20260502181334 | 12 | 178 | 8.0 | 16.1 | 0.00 | 0.51 | 0.10 | 79 | 1010.8 |
| 20260502180858 | 12 | 176 | 8.0 | 17.7 | 0.00 | 0.51 | 0.10 | 80 | 1010.8 |
| 20260502180355 | 12 | 163 | 9.7 | 17.7 | 0.00 | 0.51 | 0.10 | 80 | 1010.8 |
| 20260502170351 | 13 | 184 | 11.3 | 20.9 | 0.00 | 0.51 | 0.10 | 79 | 1010.9 |
| 20260502163914 | 13 | 176 | 12.9 | 22.5 | 0.00 | 0.51 | 0.10 | 78 | 1010.9 |
| 20260502163344 | 13 | 120 | 12.9 | 19.3 | 0.00 | 0.51 | 0.10 | 79 | 1010.9 |
| 20260502162842 | 13 | 179 | 9.7 | 24.1 | 0.00 | 0.51 | 0.10 | 79 | 1010.9 |
| 20260502162338 | 13 | 142 | 12.9 | 22.5 | 0.00 | 0.51 | 0.10 | 78 | 1010.8 |
| 20260502161855 | 13 | 146 | 12.9 | 20.9 | 0.00 | 0.51 | 0.10 | 79 | 1010.9 |
| 20260502161401 | 13 | 153 | 11.3 | 20.9 | 0.00 | 0.51 | 0.10 | 78 | 1011.0 |
| 20260502160859 | 13 | 130 | 12.9 | 20.9 | 0.00 | 0.51 | 0.10 | 78 | 1011.0 |
| 20260502160348 | 13 | 123 | 11.3 | 20.9 | 0.00 | 0.51 | 0.10 | 78 | 1011.0 |
| 20260502151847 | 13 | 188 | 12.9 | 25.7 | 0.00 | 0.51 | 0.10 | 77 | 1011.3 |
| 20260502151346 | 13 | 191 | 14.5 | 25.7 | 0.00 | 0.51 | 0.10 | 77 | 1011.3 |
| 20260502150849 | 13 | 165 | 14.5 | 19.3 | 0.00 | 0.51 | 0.10 | 77 | 1011.3 |
| 20260502150342 | 13 | 210 | 11.3 | 19.3 | 0.00 | 0.51 | 0.10 | 76 | 1011.3 |
| 20260502130349 | 13 | 138 | 14.5 | 27.4 | 0.00 | 0.51 | 0.10 | 80 | 1012.4 |
| 20260502123408 | 13 | 148 | 12.9 | 24.1 | 0.00 | 0.51 | 0.10 | 81 | 1012.7 |
| 20260502122818 | 13 | 138 | 12.9 | 25.7 | 0.00 | 0.51 | 0.10 | 80 | 1012.8 |
| 20260502121907 | 13 | 163 | 12.9 | 20.9 | 0.00 | 0.51 | 0.10 | 81 | 1012.8 |
| 20260502121402 | 13 | 157 | 16.1 | 22.5 | 0.00 | 0.51 | 0.10 | 80 | 1012.9 |
| 20260502120914 | 13 | 188 | 14.5 | 25.7 | 0.00 | 0.51 | 0.10 | 80 | 1013.0 |
| 20260502120407 | 13 | 153 | 17.7 | 29.0 | 0.00 | 0.51 | 0.10 | 79 | 1013.0 |
| 20260502115907 | 13 | 170 | 14.5 | 24.1 | 0.00 | 0.51 | 0.10 | 81 | 1013.1 |
| 20260502115404 | 12 | 161 | 16.1 | 24.1 | 0.00 | 0.51 | 0.10 | 82 | 1013.2 |
| 20260502114921 | 12 | 179 | 11.3 | 25.7 | 0.00 | 0.51 | 0.10 | 82 | 1013.3 |
| 20260502114357 | 12 | 148 | 17.7 | 25.7 | 0.00 | 0.51 | 0.10 | 81 | 1013.3 |
| 20260502113856 | 12 | 188 | 14.5 | 25.7 | 0.00 | 0.51 | 0.10 | 83 | 1013.3 |
| 20260502113355 | 12 | 150 | 17.7 | 24.1 | 0.00 | 0.51 | 0.10 | 82 | 1013.2 |
| 20260502112917 | 12 | 182 | 12.9 | 24.1 | 0.00 | 0.51 | 0.10 | 82 | 1013.2 |
| 20260502112355 | 12 | 149 | 11.3 | 22.5 | 0.00 | 0.51 | 0.10 | 83 | 1013.2 |
| 20260502111856 | 12 | 157 | 11.3 | 19.3 | 0.00 | 0.51 | 0.10 | 82 | 1013.1 |
| 20260502111411 | 12 | 179 | 12.9 | 19.3 | 0.00 | 0.51 | 0.10 | 82 | 1013.1 |
| 20260502110909 | 12 | 164 | 11.3 | 22.5 | 0.00 | 0.51 | 0.10 | 82 | 1013.2 |
| 20260502110401 | 12 | 154 | 14.5 | 22.5 | 0.00 | 0.51 | 0.10 | 81 | 1013.2 |
| 20260502105907 | 12 | 168 | 12.9 | 25.7 | 0.00 | 0.51 | 0.10 | 82 | 1013.2 |
| 20260502105429 | 12 | 165 | 14.5 | 24.1 | 0.00 | 0.51 | 0.10 | 82 | 1013.2 |
| 20260502104911 | 12 | 174 | 16.1 | 24.1 | 0.00 | 0.51 | 0.10 | 81 | 1013.2 |
| 20260502104408 | 12 | 138 | 14.5 | 25.7 | 0.00 | 0.51 | 0.10 | 81 | 1013.2 |
| 20260502103922 | 12 | 151 | 17.7 | 24.1 | 0.00 | 0.51 | 0.10 | 81 | 1013.3 |
| 20260502103416 | 12 | 170 | 9.7 | 24.1 | 0.00 | 0.51 | 0.10 | 84 | 1013.3 |
| 20260502102858 | 12 | 161 | 16.1 | 24.1 | 0.00 | 0.51 | 0.10 | 84 | 1013.3 |
| 20260502102420 | 12 | 176 | 9.7 | 17.7 | 0.00 | 0.51 | 0.10 | 85 | 1013.4 |
| 20260502101859 | 12 | 148 | 12.9 | 20.9 | 0.00 | 0.51 | 0.10 | 85 | 1013.4 |
| 20260502101427 | 12 | 180 | 11.3 | 19.3 | 0.00 | 0.51 | 0.10 | 84 | 1013.5 |
| 20260502100901 | 12 | 160 | 14.5 | 19.3 | 0.00 | 0.51 | 0.10 | 84 | 1013.6 |
| 20260502100400 | 12 | 177 | 8.0 | 19.3 | 0.00 | 0.51 | 0.10 | 84 | 1013.6 |
| 20260502091410 | 11 | 162 | 12.9 | 17.7 | 0.00 | 0.51 | 0.10 | 85 | 1013.9 |
| 20260502090904 | 11 | 169 | 11.3 | 22.5 | 0.00 | 0.51 | 0.10 | 86 | 1013.9 |
| 20260502090431 | 11 | 180 | 11.3 | 22.5 | 0.00 | 0.51 | 0.10 | 86 | 1013.9 |
| 20260502071400 | 10 | 129 | 8.0 | 16.1 | 0.51 | 0.51 | 0.10 | 91 | 1014.2 |
| 20260502070855 | 10 | 146 | 8.0 | 17.7 | 0.51 | 0.51 | 0.10 | 91 | 1014.2 |
| 20260502070357 | 10 | 123 | 8.0 | 17.7 | 0.51 | 0.51 | 0.10 | 91 | 1014.1 |
| 20260502065859 | 10 | 141 | 6.4 | 14.5 | 0.51 | 0.51 | 0.10 | 91 | 1014.2 |
| 20260502065419 | 10 | 143 | 8.0 | 14.5 | 0.51 | 0.51 | 0.10 | 91 | 1014.2 |
| 20260502064912 | 10 | 144 | 8.0 | 17.7 | 0.51 | 0.51 | 0.10 | 91 | 1014.2 |
| 20260502064407 | 10 | 151 | 9.7 | 17.7 | 0.51 | 0.51 | 0.10 | 91 | 1014.2 |
| 20260502063855 | 10 | 162 | 8.0 | 14.5 | 0.51 | 0.51 | 0.10 | 91 | 1014.2 |
| 20260502063355 | 10 | 144 | 8.0 | 17.7 | 0.41 | 0.41 | 0.08 | 91 | 1014.3 |
| 20260502062853 | 10 | 165 | 6.4 | 17.7 | 0.41 | 0.41 | 0.08 | 91 | 1014.2 |
| 20260502062435 | 10 | 152 | 8.0 | 16.1 | 0.41 | 0.41 | 0.08 | 91 | 1014.3 |
| 20260502061929 | 10 | 147 | 9.7 | 16.1 | 0.20 | 0.20 | 0.05 | 91 | 1014.3 |
| 20260502061411 | 10 | 134 | 8.0 | 14.5 | 0.00 | 0.00 | 0.00 | 91 | 1014.3 |
| 20260502060905 | 10 | 162 | 8.0 | 14.5 | 0.00 | 0.00 | 0.00 | 90 | 1014.4 |
| 20260502060428 | 10 | 159 | 8.0 | 12.9 | 0.00 | 0.00 | 0.00 | 91 | 1014.4 |
| 20260502055906 | 10 | 158 | 9.7 | 12.9 | 0.00 | 0.00 | 0.00 | 91 | 1014.3 |
| 20260502055402 | 10 | 143 | 8.0 | 12.9 | 0.00 | 0.00 | 0.00 | 91 | 1014.3 |
| 20260502054857 | 10 | 142 | 6.4 | 12.9 | 0.00 | 0.00 | 0.00 | 91 | 1014.3 |
| 20260502054352 | 10 | 154 | 6.4 | 12.9 | 0.00 | 0.00 | 0.00 | 91 | 1014.3 |
| 20260502053911 | 10 | 185 | 8.0 | 12.9 | 0.00 | 0.00 | 0.00 | 91 | 1014.4 |
| 20260502053428 | 10 | 148 | 8.0 | 14.5 | 0.00 | 0.00 | 0.00 | 91 | 1014.4 |
| 20260502052901 | 10 | 146 | 8.0 | 16.1 | 0.00 | 0.00 | 0.00 | 91 | 1014.4 |
| 20260502052355 | 10 | 140 | 9.7 | 16.1 | 0.00 | 0.00 | 0.00 | 90 | 1014.3 |
| 20260502051900 | 10 | 167 | 6.4 | 14.5 | 0.00 | 0.00 | 0.00 | 90 | 1014.3 |
| 20260502051415 | 10 | 99 | 8.0 | 12.9 | 0.00 | 0.00 | 0.00 | 90 | 1014.4 |
| 20260502050911 | 10 | 151 | 4.8 | 12.9 | 0.00 | 0.00 | 0.00 | 90 | 1014.4 |